Tracking 23612 objects as of 17-Sep-2021
HD Live streaming from Space Station
objects crossing your sky now
Track INSPIRATION-4

MORELOS 2

Track MORELOS 2 now!
MORELOS 2 is classified as:


NORAD ID: 16274
Int'l Code: 1985-109B
Perigee: 35,958.5 km
Apogee: 36,026.0 km
Inclination: 14.7 °
Period: 1,446.2 minutes
Semi major axis: 42363 km
RCS: 7.6304 m2 (large)
Launch date: November 27, 1985
Source: Mexico (MEX)
Launch site: AIR FORCE EASTERN TEST RANGE (AFETR)
aabbcc
Your satellite tracking list
Your tracking list is empty




NASA's NSSDC Master Catalog

Two Line Element Set (TLE):
1 16274U 85109B   21259.02410303 -.00000117  00000-0  00000-0 0  9995
2 16274  14.6884   9.9670 0007973  90.1178 270.0655  0.99567887 29078
Source of the keplerian elements: AFSPC